sat.trackr.live / text

‹ back to catalog

IRIDIUM 159

NORAD 43578 · 2018-061K

PAYLOAD ACTIVE UNKNOWN

§ Identity

Operator
Country
US
Launch date
2018-07-25
Launch site
AFWTR
Launch vehicle
Mass (kg)
RCS (m²)

Purposes: comms

External: N2YO · Heavens-Above · Gunter

§ Orbital elements

Epoch: 2026-05-25T04:22:58.463040Z

Period
100.40 min
Inclination
86.3967°
Eccentricity
0.0002300
Mean motion
14.34217948 rev/d
Perigee alt
776.0 km
Apogee alt
779.3 km
Semi-major
7,155.8 km
B*
5.7686e-6
RAAN
66.3238°
Arg perigee
86.7868°
Mean anomaly
273.3591°
Rev number
41,008

§ Raw data

IRIDIUM 1591 43578U 18061K   26145.18262110  .00000036  00000+0  57686-5 0  99972 43578  86.3967  66.3238 0002300  86.7868 273.3591 14.34217948410080

JSON: /api/v1/satellites/43578 · /tle

For live sub-satellite position, see the globe view (requires WebGL).

§ Visibility from observer

Set your observer location to see the next 7 days of passes ≥ 10°. The values pass through the URL so the page stays shareable.

No JS? Fill the form by hand. The geolocation button needs JavaScript.